"startDT [UTC]","vpos","CH4 [ppm]","stdev(CH4) [ppm]","CO2 [ppm]","stdev(CO2) [ppm]","H2O_reported [%]","stdev(H2O_reported)","CavityPressure [torr]","CavityTemp [C]","OutletValve","CH4_dry [ppm]","CO2_dry [ppm]","DasTemp [C]","EtalonTemp [C]","WarmBoxTemp [C]","MPVPosition","T_ECpre [C]","T_EC1 [C]","T_EC2 [C]","p_inlet [hPa]","p_in [hPa]","p_out [hPa]","T_inlet [C]","RH_inlet [%]","dwpt_inlet [C]","T_vent [C]","RH_vent [%]","dwpt_vent [C]","flow_vent [l min-1]","flow_inlet [l min-1]","dwpt_sample [C]","T_room [C]"
2015-07-23 00:00:00,0.0,1.88574,0.00042,385.144,0.057,1.0167,0.0024,139.999,45.000,34301.51402,1.90524,390.008,32.964,45.068,45.000,0.00,0.10,-272.73,-272.79,-6,996,-5,23.2,27.7,3.5,22.9,28.5,3.7,5.73,1.90,1.6,27.3
2015-07-23 00:01:00,0.0,1.88589,0.00048,385.052,0.069,1.0190,0.0017,140.000,45.000,34298.80826,1.90544,389.935,32.954,45.068,45.000,0.00,0.10,-272.74,-272.80,-6,996,-5,23.2,27.8,3.5,22.9,28.6,3.8,5.73,1.92,1.7,27.3
2015-07-23 00:02:00,0.0,1.88601,0.00047,384.969,0.097,1.0212,0.0027,139.999,45.000,34297.23008,1.90556,389.854,32.942,45.068,45.000,0.00,0.10,-272.73,-272.80,-6,996,-5,23.2,27.9,3.6,22.9,28.6,3.8,5.73,1.93,1.6,27.2
2015-07-23 00:03:00,0.0,1.88610,0.00032,385.031,0.110,1.0200,0.0018,139.997,45.000,34298.04365,1.90568,389.912,32.941,45.068,45.000,0.00,0.10,-272.73,-272.79,-6,996,-5,23.2,27.9,3.6,22.9,28.7,3.8,5.73,1.91,1.6,27.2
2015-07-23 00:04:00,0.0,1.88588,0.00032,384.871,0.131,1.0234,0.0019,139.998,45.000,34299.82507,1.90550,389.761,32.943,45.068,45.000,0.00,0.10,-272.73,-272.79,-6,996,-5,23.2,27.9,3.6,22.9,28.8,3.8,5.73,1.88,1.6,27.2
2015-07-23 00:05:00,0.0,1.88597,0.00031,384.923,0.128,1.0222,0.0012,139.997,45.000,34299.62538,1.90559,389.819,32.940,45.068,45.000,0.00,0.10,-272.74,-272.79,-6,995,-5,23.2,27.9,3.6,22.9,28.7,3.8,5.73,1.85,1.6,27.2
2015-07-23 00:06:00,0.0,1.88616,0.00054,384.866,0.054,1.0240,0.0016,139.999,45.000,34298.74403,1.90579,389.767,32.938,45.068,45.000,0.00,0.10,-272.73,-272.79,-6,996,-5,23.2,27.9,3.6,22.9,28.8,3.8,5.73,1.85,1.6,27.2
2015-07-23 00:07:00,0.0,1.88611,0.00032,384.786,0.057,1.0253,0.0014,139.998,45.000,34301.70035,1.90581,389.691,32.939,45.068,45.000,0.00,0.10,-272.73,-272.79,-6,996,-5,23.2,28.0,3.7,22.9,28.8,3.9,5.73,1.86,1.6,27.2
2015-07-23 00:08:00,0.0,1.88626,0.00039,384.834,0.086,1.0271,0.0022,140.000,45.000,34300.25148,1.90594,389.745,32.940,45.068,45.000,0.00,0.10,-272.73,-272.80,-6,996,-5,23.2,28.0,3.7,22.9,28.9,3.9,5.73,1.89,1.6,27.2
2015-07-23 00:09:00,0.0,1.88645,0.00024,384.947,0.064,1.0259,0.0018,140.002,45.000,34301.64631,1.90614,389.857,32.941,45.068,45.000,0.00,0.10,-272.73,-272.80,-6,996,-5,23.2,28.0,3.6,22.9,28.8,3.9,5.73,1.92,1.6,27.2
2015-07-23 00:10:00,0.0,1.88575,0.00047,384.931,0.080,1.0261,0.0011,140.000,45.000,34300.77062,1.90546,389.841,32.938,45.068,45.000,0.00,0.10,-272.72,-272.80,-6,995,-5,23.2,28.0,3.7,22.9,28.8,3.9,5.73,1.93,1.6,27.2
2015-07-23 00:11:00,0.0,1.88574,0.00035,384.875,0.059,1.0278,0.0020,140.000,45.000,34299.69613,1.90540,389.793,32.945,45.068,45.000,0.00,0.10,-272.73,-272.80,-6,996,-5,23.2,28.0,3.7,22.9,28.9,3.9,5.73,1.92,1.6,27.1
2015-07-23 00:12:00,0.0,1.88558,0.00043,384.886,0.107,1.0262,0.0020,140.002,45.000,34298.62021,1.90532,389.790,32.957,45.068,45.000,0.00,0.10,-272.74,-272.80,-6,996,-5,23.2,28.1,3.7,22.9,28.9,3.9,5.73,1.90,1.6,27.2
2015-07-23 00:13:00,0.0,1.88545,0.00030,384.934,0.066,1.0247,0.0027,139.997,45.000,34298.19731,1.90509,389.844,32.976,45.068,45.000,0.00,0.10,-272.73,-272.79,-6,996,-5,23.2,28.0,3.6,22.9,28.8,3.8,5.73,1.87,1.6,27.2
2015-07-23 00:14:00,0.0,1.88550,0.00027,384.834,0.084,1.0263,0.0016,139.997,45.000,34299.35828,1.90515,389.746,32.978,45.068,45.000,0.00,0.10,-272.74,-272.80,-6,996,-5,23.2,28.0,3.7,22.9,28.9,3.9,5.73,1.85,1.6,27.2
2015-07-23 00:15:00,0.0,1.88570,0.00033,384.992,0.110,1.0257,0.0022,140.001,45.000,34298.60242,1.90537,389.896,32.975,45.068,45.000,0.00,0.10,-272.74,-272.80,-6,996,-5,23.1,28.0,3.6,22.9,28.8,3.9,5.73,1.85,1.6,27.2
2015-07-23 00:16:00,0.0,1.88584,0.00032,384.981,0.067,1.0249,0.0023,140.000,45.000,34297.59283,1.90549,389.888,32.975,45.068,45.000,0.00,0.10,-272.73,-272.79,-6,995,-5,23.2,28.0,3.7,22.9,28.8,3.9,5.73,1.87,1.6,27.2
2015-07-23 00:17:00,0.0,1.88618,0.00025,384.938,0.076,1.0249,0.0020,140.000,45.000,34296.13182,1.90582,389.838,32.982,45.068,45.000,0.00,0.10,-272.73,-272.79,-6,996,-5,23.2,28.0,3.6,22.9,28.8,3.9,5.73,1.90,1.6,27.2
2015-07-23 00:18:00,0.0,1.88613,0.00042,384.911,0.085,1.0271,0.0018,140.002,45.000,34296.48450,1.90585,389.830,32.990,45.068,45.000,0.00,0.10,-272.74,-272.80,-6,996,-5,23.2,28.1,3.7,22.9,28.9,3.9,5.73,1.92,1.6,27.2
2015-07-23 00:19:00,0.0,1.88630,0.00024,384.796,0.076,1.0262,0.0021,140.000,45.000,34298.03101,1.90597,389.704,32.997,45.068,45.000,0.00,0.10,-272.73,-272.79,-6,996,-5,23.2,28.0,3.7,22.9,28.9,3.9,5.73,1.92,1.6,27.2
2015-07-23 00:20:00,0.0,1.88637,0.00032,384.728,0.113,1.0289,0.0021,139.999,45.000,34298.36047,1.90612,389.650,32.991,45.068,45.000,0.00,0.10,-272.73,-272.79,-6,995,-5,23.1,28.1,3.7,22.9,28.9,3.9,5.73,1.92,1.6,27.3
2015-07-23 00:21:00,0.0,1.88683,0.00028,384.822,0.093,1.0295,0.0025,140.001,45.000,34299.50345,1.90654,389.748,32.964,45.068,45.000,0.00,0.10,-272.73,-272.80,-7,996,-5,23.2,28.1,3.7,22.9,28.9,3.9,5.73,1.90,1.6,27.2
2015-07-23 00:22:00,0.0,1.88681,0.00031,384.832,0.071,1.0303,0.0021,139.997,45.000,34296.76833,1.90659,389.764,32.943,45.068,45.000,0.00,0.10,-272.73,-272.80,-6,995,-5,23.2,28.1,3.7,22.9,29.0,3.9,5.73,1.86,1.6,27.2
2015-07-23 00:23:00,0.0,1.88720,0.00033,384.867,0.050,1.0300,0.0020,140.000,45.000,34297.50696,1.90693,389.793,32.940,45.068,45.000,0.00,0.10,-272.73,-272.80,-6,996,-5,23.2,28.1,3.7,22.9,29.0,3.9,5.73,1.85,1.6,27.2
2015-07-23 00:24:00,0.0,1.88728,0.00045,384.722,0.106,1.0321,0.0024,139.999,45.000,34299.07925,1.90712,389.661,32.938,45.068,45.000,0.00,0.10,-272.73,-272.80,-6,996,-5,23.2,28.2,3.7,22.9,29.0,3.9,5.73,1.85,1.7,27.2
2015-07-23 00:25:00,0.0,1.88717,0.00048,384.888,0.044,1.0296,0.0027,139.997,45.000,34297.27773,1.90699,389.812,32.938,45.068,45.000,0.00,0.10,-272.73,-272.80,-6,996,-5,23.1,28.1,3.7,22.9,29.0,3.9,5.73,1.87,1.6,27.2
2015-07-23 00:26:00,0.0,1.88660,0.00038,384.723,0.079,1.0304,0.0029,140.001,45.000,34297.43656,1.90635,389.657,32.937,45.068,45.000,0.00,0.10,-272.73,-272.79,-6,995,-5,23.1,28.2,3.7,22.9,29.0,3.9,5.73,1.90,1.6,27.2
2015-07-23 00:27:00,0.0,1.88666,0.00040,384.838,0.088,1.0330,0.0030,140.000,45.000,34298.15751,1.90645,389.779,32.938,45.068,45.000,0.00,0.10,-272.73,-272.79,-7,996,-5,23.2,28.2,3.7,22.9,29.0,4.0,5.73,1.92,1.6,27.2
2015-07-23 00:28:00,0.0,1.88699,0.00036,384.874,0.091,1.0303,0.0020,140.000,45.000,34297.65102,1.90674,389.805,32.938,45.068,45.000,0.00,0.10,-272.74,-272.80,-6,995,-5,23.1,28.2,3.7,22.9,29.0,3.9,5.73,1.93,1.6,27.2
2015-07-23 00:29:00,0.0,1.88707,0.00037,384.772,0.086,1.0349,0.0021,139.998,45.000,34296.07637,1.90698,389.725,32.938,45.068,45.000,0.00,0.10,-272.74,-272.79,-6,996,-5,23.1,28.3,3.8,22.9,29.1,4.0,5.73,1.92,1.6,27.2
2015-07-23 00:30:00,0.0,1.88727,0.00042,384.741,0.109,1.0375,0.0021,140.000,45.000,34295.84915,1.90713,389.699,32.943,45.068,45.000,0.00,0.10,-272.74,-272.79,-6,996,-5,23.1,28.4,3.8,22.9,29.2,4.0,5.73,1.89,1.6,27.3
2015-07-23 00:31:00,0.0,1.88769,0.00038,384.751,0.067,1.0375,0.0022,140.001,45.000,34294.24775,1.90762,389.718,32.964,45.068,45.000,0.00,0.10,-272.73,-272.79,-6,996,-5,23.1,28.4,3.8,22.9,29.2,4.0,5.73,1.86,1.6,27.2
2015-07-23 00:32:00,0.0,1.88777,0.00041,384.688,0.113,1.0397,0.0021,139.997,45.000,34293.54973,1.90775,389.665,32.968,45.068,45.000,0.00,0.10,-272.74,-272.79,-7,996,-5,23.1,28.4,3.8,22.9,29.3,4.1,5.73,1.85,1.6,27.2
2015-07-23 00:33:00,0.0,1.88808,0.00041,384.776,0.058,1.0397,0.0025,140.000,45.000,34293.10192,1.90803,389.750,32.944,45.068,45.000,0.00,0.10,-272.73,-272.79,-7,996,-5,23.1,28.4,3.8,22.9,29.3,4.1,5.73,1.86,1.6,27.2
2015-07-23 00:34:00,0.0,1.88805,0.00020,384.793,0.064,1.0385,0.0021,139.999,45.000,34294.40688,1.90799,389.761,32.940,45.068,45.000,0.00,0.10,-272.73,-272.79,-6,995,-5,23.2,28.4,3.8,22.9,29.2,4.1,5.73,1.88,1.6,27.2
2015-07-23 00:35:00,0.0,1.88808,0.00027,384.784,0.083,1.0361,0.0019,140.002,45.000,34296.26754,1.90799,389.744,32.943,45.068,45.000,0.00,0.10,-272.74,-272.79,-6,996,-5,23.1,28.4,3.8,22.9,29.2,4.0,5.73,1.90,1.6,27.2
2015-07-23 00:36:00,0.0,1.88806,0.00036,384.768,0.097,1.0338,0.0021,139.997,45.000,34298.09976,1.90791,389.712,32.977,45.068,45.000,0.00,0.10,-272.73,-272.79,-6,996,-5,23.2,28.3,3.8,22.9,29.1,4.0,5.73,1.92,1.6,27.2
2015-07-23 00:37:00,0.0,1.88774,0.00038,384.627,0.173,1.0364,0.0014,140.001,45.000,34299.82180,1.90768,389.590,32.968,45.068,45.000,0.00,0.10,-272.73,-272.79,-6,996,-5,23.1,28.3,3.8,22.9,29.1,4.0,5.73,1.93,1.6,27.2
2015-07-23 00:38:00,0.0,1.88758,0.00034,384.566,0.175,1.0362,0.0028,140.003,45.000,34300.73810,1.90748,389.517,32.957,45.068,45.000,0.00,0.10,-272.74,-272.80,-6,996,-5,23.1,28.3,3.8,22.9,29.2,4.0,5.73,1.91,1.6,27.2
2015-07-23 00:39:00,0.0,1.88781,0.00034,384.700,0.080,1.0320,0.0019,140.003,45.000,34302.69288,1.90760,389.639,32.973,45.068,45.000,0.00,0.10,-272.73,-272.80,-6,995,-5,23.1,28.2,3.7,22.9,29.0,3.9,5.73,1.88,1.6,27.2
2015-07-23 00:40:00,0.0,1.88801,0.00046,384.623,0.152,1.0340,0.0010,140.001,45.000,34297.39327,1.90791,389.562,32.962,45.068,45.000,0.00,0.10,-272.72,-272.80,-6,996,-5,23.2,28.3,3.8,22.9,29.1,4.0,5.73,1.86,1.6,27.2
2015-07-23 00:41:00,0.0,1.88779,0.00029,384.696,0.096,1.0286,0.0022,139.996,45.000,34296.26766,1.90752,389.622,32.947,45.068,45.000,0.00,0.10,-272.73,-272.80,-6,996,-5,23.1,28.1,3.7,22.9,29.0,3.9,5.73,1.85,1.6,27.2
2015-07-23 00:42:00,0.0,1.88786,0.00036,384.472,0.091,1.0324,0.0018,140.001,45.000,34298.38725,1.90769,389.409,32.951,45.068,45.000,0.00,0.10,-272.73,-272.80,-6,996,-5,23.1,28.3,3.7,22.9,29.0,4.0,5.73,1.86,1.6,27.2
2015-07-23 00:43:00,0.0,1.88743,0.00034,384.684,0.082,1.0277,0.0031,139.998,45.000,34298.10065,1.90718,389.598,32.950,45.068,45.000,0.00,0.10,-272.73,-272.79,-6,995,-5,23.1,28.1,3.7,22.9,29.0,3.9,5.73,1.88,1.6,27.1
2015-07-23 00:44:00,0.0,1.88781,0.00040,384.676,0.122,1.0270,0.0025,139.998,45.000,34294.46412,1.90749,389.587,32.949,45.068,45.000,0.00,0.10,-272.73,-272.79,-6,995,-5,23.1,28.0,3.6,22.9,28.9,3.9,5.73,1.91,1.6,27.2
2015-07-23 00:45:00,0.0,1.88773,0.00045,384.542,0.053,1.0277,0.0028,140.003,45.000,34297.71462,1.90750,389.454,32.938,45.068,45.000,0.00,0.10,-272.74,-272.80,-6,995,-5,23.1,28.1,3.7,22.9,28.9,3.9,5.73,1.92,1.6,27.2
2015-07-23 00:46:00,0.0,1.88807,0.00045,384.570,0.096,1.0278,0.0017,139.996,45.000,34295.32687,1.90779,389.483,32.938,45.068,45.000,0.00,0.10,-272.73,-272.79,-6,996,-5,23.1,28.1,3.7,22.9,28.9,3.9,5.73,1.92,1.6,27.2
2015-07-23 00:47:00,0.0,1.88808,0.00038,384.662,0.107,1.0270,0.0019,139.997,45.000,34295.11953,1.90781,389.570,32.939,45.068,45.000,0.00,0.10,-272.73,-272.78,-6,995,-5,23.1,28.1,3.6,22.9,28.9,3.9,5.73,1.91,1.6,27.2
2015-07-23 00:48:00,0.0,1.88813,0.00024,384.678,0.064,1.0243,0.0019,139.998,45.000,34296.74465,1.90775,389.579,32.938,45.068,45.000,0.00,0.10,-272.73,-272.79,-6,996,-5,23.1,28.0,3.6,22.9,28.9,3.9,5.73,1.88,1.6,27.2
2015-07-23 00:49:00,0.0,1.88821,0.00052,384.488,0.087,1.0259,0.0020,140.000,45.000,34295.77419,1.90794,389.391,32.941,45.068,45.000,0.00,0.10,-272.74,-272.80,-6,996,-5,23.1,28.1,3.7,22.9,28.8,3.9,5.73,1.86,1.6,27.2
2015-07-23 00:50:00,0.0,1.88875,0.00050,384.812,0.073,1.0240,0.0046,139.997,45.000,34293.66604,1.90835,389.707,32.939,45.068,45.000,0.00,0.10,-272.73,-272.79,-6,996,-5,23.1,27.9,3.6,22.9,28.8,3.8,5.73,1.85,1.6,27.3
2015-07-23 00:51:00,0.0,1.88895,0.00035,384.823,0.052,1.0134,0.0022,140.001,45.000,34294.20629,1.90845,389.668,32.940,45.068,45.000,0.00,0.10,-272.73,-272.79,-6,996,-5,23.1,27.7,3.5,22.9,28.5,3.7,5.73,1.86,1.6,27.2
2015-07-23 00:52:00,0.0,1.88860,0.00048,384.794,0.104,1.0182,0.0019,140.003,45.000,34295.28483,1.90820,389.660,32.904,45.068,45.000,0.00,0.10,-272.74,-272.81,-6,996,-5,23.1,27.9,3.5,22.9,28.6,3.7,5.73,1.88,1.6,27.2
2015-07-23 00:53:00,0.0,1.88850,0.00032,384.803,0.062,1.0154,0.0021,140.001,45.000,34294.72598,1.90799,389.662,32.863,45.068,45.000,0.00,0.10,-272.73,-272.79,-6,996,-5,23.1,27.8,3.5,22.9,28.6,3.7,5.73,1.93,1.7,27.2
2015-07-23 00:54:00,0.0,1.88852,0.00039,384.605,0.098,1.0182,0.0026,140.000,45.000,34290.85043,1.90806,389.476,32.813,45.068,44.999,0.00,0.10,-272.73,-272.79,-6,996,-5,23.1,27.9,3.6,22.9,28.6,3.8,5.73,1.94,1.7,27.1
2015-07-23 00:55:00,0.0,1.88864,0.00040,384.643,0.126,1.0196,0.0021,139.999,44.999,34290.53850,1.90821,389.508,32.774,45.068,45.000,0.00,0.32,-270.83,-270.49,-7,996,-5,23.1,27.9,3.6,22.9,28.7,3.8,5.43,2.04,-1.9,27.1
2015-07-23 00:56:00,0.0,1.88862,0.00027,384.880,0.080,1.0161,0.0027,140.003,44.999,34291.78601,1.90814,389.741,32.707,45.068,45.000,0.00,0.10,-272.74,-272.79,-6,996,-5,23.1,27.9,3.5,22.9,28.6,3.7,5.73,1.86,1.7,27.1
2015-07-23 00:57:00,0.0,1.88873,0.00039,384.825,0.058,1.0176,0.0017,140.001,44.999,34287.86467,1.90825,389.693,32.676,45.068,45.000,0.00,0.10,-272.73,-272.79,-6,996,-4,23.1,27.9,3.5,22.9,28.6,3.7,5.73,1.83,1.7,27.1
2015-07-23 00:58:00,0.0,1.88876,0.00036,384.648,0.058,1.0175,0.0024,139.996,44.999,34285.97241,1.90834,389.513,32.629,45.068,45.000,0.00,0.10,-272.73,-272.79,-6,996,-5,23.1,28.0,3.5,22.9,28.6,3.7,5.73,1.85,1.7,27.1
2015-07-23 00:59:00,0.0,1.88886,0.00056,384.820,0.067,1.0188,0.0018,139.998,44.999,34284.57342,1.90839,389.689,32.575,45.068,45.000,0.00,0.10,-272.74,-272.80,-6,996,-5,23.1,28.0,3.5,22.9,28.7,3.7,5.73,1.91,1.7,27.0
2015-07-23 01:00:00,0.0,1.88885,0.00040,384.840,0.070,1.0139,0.0025,139.997,44.999,34280.54479,1.90831,389.688,32.517,45.068,45.000,0.00,0.10,-272.73,-272.79,-7,996,-5,23.0,27.9,3.5,22.9,28.6,3.7,5.73,1.95,1.7,27.0
2015-07-23 01:01:00,0.0,1.88926,0.00039,384.836,0.029,1.0150,0.0014,139.999,44.999,34279.89192,1.90875,389.690,32.450,45.068,45.000,0.00,0.10,-272.73,-272.79,-6,996,-5,23.1,27.9,3.5,22.8,28.6,3.7,5.73,1.93,1.8,27.0
2015-07-23 01:02:00,0.0,1.88956,0.00031,384.699,0.062,1.0165,0.0017,140.000,44.999,34278.83054,1.90906,389.557,32.405,45.068,45.000,0.00,0.10,-272.73,-272.80,-6,996,-5,23.0,28.0,3.5,22.9,28.7,3.7,5.73,1.86,1.8,27.0
2015-07-23 01:03:00,0.0,1.88935,0.00037,384.767,0.060,1.0166,0.0019,139.997,44.999,34277.05650,1.90894,389.632,32.357,45.068,45.000,0.00,0.10,-272.73,-272.80,-6,995,-5,23.0,28.0,3.5,22.8,28.7,3.7,5.73,1.82,1.8,26.9
2015-07-23 01:04:00,0.0,1.88940,0.00032,384.754,0.064,1.0177,0.0023,139.994,44.999,34273.51549,1.90891,389.623,32.306,45.068,45.000,0.00,0.10,-272.73,-272.79,-6,996,-6,23.0,28.1,3.5,22.8,28.8,3.7,5.73,1.87,1.8,26.9
2015-07-23 01:05:00,0.0,1.88948,0.00031,384.681,0.069,1.0167,0.0016,139.999,44.999,34273.26193,1.90903,389.538,32.254,45.068,45.000,0.00,0.10,-272.73,-272.80,-6,996,-4,23.0,28.1,3.6,22.8,28.8,3.7,5.73,1.94,1.8,26.8
2015-07-23 01:06:00,0.0,1.88954,0.00037,384.799,0.086,1.0185,0.0017,140.003,44.999,34270.89161,1.90909,389.665,32.216,45.068,45.000,0.00,0.10,-272.74,-272.80,-6,996,-5,23.0,28.2,3.6,22.8,28.9,3.7,5.73,1.95,1.8,26.8
2015-07-23 01:07:00,0.0,1.88944,0.00030,384.802,0.067,1.0187,0.0022,140.000,44.999,34270.12717,1.90903,389.676,32.188,45.068,45.000,0.00,0.10,-272.73,-272.79,-6,997,-4,22.9,28.3,3.6,22.7,28.9,3.7,5.73,1.88,1.8,26.8
2015-07-23 01:08:00,0.0,1.88966,0.00031,384.720,0.064,1.0208,0.0012,140.001,44.999,34269.01624,1.90927,389.603,32.164,45.068,45.000,0.00,0.10,-272.73,-272.79,-7,996,-4,22.9,28.3,3.6,22.7,28.9,3.7,5.73,1.83,1.8,26.7
2015-07-23 01:09:00,0.0,1.88990,0.00031,384.765,0.072,1.0201,0.0022,139.997,44.999,34265.21516,1.90950,389.642,32.130,45.068,45.000,0.00,0.10,-272.74,-272.80,-6,996,-4,22.9,28.3,3.6,22.7,29.0,3.7,5.73,1.85,1.8,26.7
2015-07-23 01:10:00,0.0,1.88952,0.00044,384.733,0.107,1.0218,0.0019,140.003,44.999,34267.19226,1.90919,389.622,32.125,45.068,45.000,0.00,0.10,-272.73,-272.79,-5,997,-4,22.9,28.4,3.6,22.7,29.0,3.8,5.73,1.92,1.8,26.7
2015-07-23 01:11:00,0.0,1.88965,0.00042,384.766,0.078,1.0233,0.0023,140.000,44.999,34263.62529,1.90925,389.655,32.120,45.068,45.000,0.00,0.10,-272.73,-272.79,-6,996,-3,22.9,28.5,3.6,22.7,29.1,3.8,5.73,1.95,1.8,26.7
2015-07-23 01:12:00,0.0,1.89019,0.00040,384.679,0.090,1.0237,0.0026,139.997,45.000,34261.43241,1.90985,389.575,32.125,45.068,45.000,0.00,0.10,-272.74,-272.79,-6,996,-4,22.9,28.6,3.7,22.6,29.1,3.7,5.73,1.91,1.8,26.6
2015-07-23 01:13:00,0.0,1.89046,0.00049,384.602,0.083,1.0275,0.0022,139.996,45.000,34261.43596,1.91024,389.513,32.126,45.068,45.000,0.00,0.10,-272.73,-272.79,-6,996,-4,22.8,28.7,3.7,22.7,29.2,3.8,5.73,1.85,1.8,26.6
2015-07-23 01:14:00,0.0,1.88996,0.00055,384.709,0.054,1.0267,0.0024,140.000,45.000,34266.16013,1.90971,389.621,32.139,45.069,45.000,0.00,0.10,-272.73,-272.79,-6,996,-4,22.8,28.6,3.7,22.7,29.2,3.8,5.73,1.83,1.8,26.6
2015-07-23 01:15:00,0.0,1.88940,0.00025,384.684,0.070,1.0277,0.0021,139.999,45.000,34265.91043,1.90918,389.600,32.179,45.069,45.000,0.00,0.10,-272.73,-272.79,-6,996,-4,22.8,28.7,3.7,22.7,29.3,3.9,5.73,1.87,1.9,26.6
2015-07-23 01:16:00,0.0,1.88934,0.00045,384.675,0.089,1.0284,0.0022,140.000,45.000,34266.63498,1.90904,389.596,32.191,45.069,45.000,0.00,0.10,-272.73,-272.80,-6,996,-5,22.8,28.8,3.7,22.7,29.3,3.9,5.73,1.92,1.9,26.6
2015-07-23 01:17:00,0.0,1.88967,0.00033,384.590,0.081,1.0333,0.0022,139.997,45.000,34264.19437,1.90957,389.529,32.222,45.069,45.000,0.00,0.10,-272.73,-272.80,-6,996,-4,22.8,28.9,3.8,22.7,29.5,3.9,5.73,1.94,1.9,26.6
2015-07-23 01:18:00,0.0,1.88959,0.00042,384.651,0.072,1.0325,0.0022,139.999,45.001,34265.70146,1.90944,389.586,32.263,45.069,45.000,0.00,0.10,-272.73,-272.79,-6,996,-5,22.8,28.9,3.8,22.6,29.5,3.9,5.73,1.92,1.9,26.6
2015-07-23 01:19:00,0.0,1.88975,0.00042,384.656,0.067,1.0339,0.0020,140.002,45.000,34268.58646,1.90964,389.605,32.305,45.068,45.000,0.00,0.10,-272.73,-272.80,-6,996,-4,22.8,29.0,3.8,22.6,29.5,3.9,5.73,1.87,1.9,26.7
2015-07-23 01:20:00,0.0,1.88999,0.00042,384.750,0.102,1.0346,0.0018,139.997,45.001,34265.23943,1.90981,389.695,32.315,45.068,45.000,0.00,0.10,-272.73,-272.79,-6,996,-4,22.8,29.0,3.8,22.6,29.6,3.9,5.73,1.84,1.9,26.6
2015-07-23 01:21:00,0.0,1.89039,0.00053,384.655,0.058,1.0349,0.0020,139.997,45.001,34264.75184,1.91031,389.606,32.363,45.068,45.000,0.00,0.10,-272.73,-272.79,-6,995,-4,22.8,29.0,3.8,22.6,29.6,3.9,5.73,1.86,1.9,26.7
2015-07-23 01:22:00,0.0,1.89004,0.00029,384.765,0.068,1.0346,0.0017,139.999,45.000,34264.64872,1.90995,389.711,32.375,45.068,45.000,0.00,0.10,-272.74,-272.80,-6,995,-4,22.8,29.0,3.8,22.6,29.6,3.9,5.73,1.89,1.9,26.7
2015-07-23 01:23:00,0.0,1.89022,0.00037,384.618,0.107,1.0364,0.0027,139.999,45.000,34267.66051,1.91012,389.579,32.394,45.068,45.000,0.00,0.10,-272.74,-272.80,-5,995,-4,22.7,29.1,3.8,22.6,29.6,4.0,5.73,1.93,1.9,26.7
2015-07-23 01:24:00,0.0,1.89083,0.00051,384.637,0.079,1.0395,0.0027,139.996,45.000,34267.24321,1.91082,389.609,32.428,45.068,45.000,0.00,0.10,-272.73,-272.79,-6,995,-4,22.8,29.2,3.9,22.6,29.8,4.0,5.73,1.94,1.9,26.7
2015-07-23 01:25:00,0.0,1.89101,0.00038,384.586,0.054,1.0409,0.0019,139.997,45.001,34266.95282,1.91103,389.569,32.436,45.068,45.000,0.00,0.10,-272.73,-272.80,-6,995,-4,22.8,29.3,3.9,22.6,29.8,4.1,5.73,1.91,1.9,26.7
2015-07-23 01:26:00,0.0,1.89056,0.00031,384.469,0.095,1.0429,0.0019,139.998,45.000,34269.20033,1.91067,389.453,32.438,45.068,45.000,0.00,0.10,-272.74,-272.80,-6,995,-4,22.7,29.3,3.9,22.6,29.9,4.1,5.73,1.87,1.9,26.7
2015-07-23 01:27:00,0.0,1.89013,0.00023,384.614,0.071,1.0435,0.0029,139.997,45.000,34268.59065,1.91020,389.604,32.442,45.069,45.000,0.00,0.10,-272.73,-272.79,-6,995,-4,22.7,29.3,3.9,22.6,29.9,4.1,5.73,1.85,1.9,26.7
2015-07-23 01:28:00,0.0,1.89022,0.00034,384.687,0.082,1.0423,0.0027,140.001,45.000,34269.36426,1.91027,389.676,32.472,45.069,45.000,0.00,0.10,-272.73,-272.79,-6,995,-4,22.7,29.3,3.9,22.6,29.9,4.1,5.73,1.86,1.9,26.8
2015-07-23 01:29:00,0.0,1.89022,0.00030,384.641,0.112,1.0479,0.0019,140.000,45.000,34267.90267,1.91037,389.659,32.500,45.069,45.000,0.00,0.10,-272.74,-272.80,-6,995,-4,22.7,29.5,4.0,22.6,30.1,4.2,5.73,1.89,1.9,26.8
2015-07-23 01:30:00,0.0,1.89045,0.00041,384.549,0.096,1.0491,0.0022,140.001,45.000,34265.87845,1.91061,389.569,32.514,45.069,45.000,0.00,0.10,-272.73,-272.80,-6,995,-4,22.7,29.5,4.0,22.6,30.1,4.2,5.73,1.92,1.9,26.7
2015-07-23 01:31:00,0.0,1.89103,0.00050,384.459,0.152,1.0545,0.0016,139.996,45.000,34263.64109,1.91132,389.498,32.550,45.069,45.000,0.00,0.10,-272.73,-272.80,-6,995,-4,22.8,29.7,4.1,22.6,30.3,4.3,5.73,1.94,1.9,26.7
2015-07-23 01:32:00,0.0,1.89063,0.00036,384.569,0.090,1.0544,0.0018,140.000,45.000,34267.18812,1.91095,389.616,32.563,45.068,45.000,0.00,0.10,-272.73,-272.80,-6,994,-4,22.7,29.7,4.1,22.6,30.3,4.3,5.73,1.92,1.9,26.7
2015-07-23 01:33:00,0.0,1.89002,0.00054,384.572,0.065,1.0577,0.0018,139.996,45.001,34266.45443,1.91037,389.634,32.578,45.068,45.000,0.00,0.10,-272.73,-272.80,-6,994,-4,22.7,29.8,4.2,22.6,30.4,4.3,5.73,1.89,1.9,26.8
2015-07-23 01:34:00,0.0,1.88987,0.00036,384.510,0.103,1.0614,0.0020,139.999,45.000,34266.62249,1.91030,389.592,32.604,45.068,45.000,0.00,0.10,-272.73,-272.79,-6,995,-4,22.8,29.9,4.2,22.6,30.5,4.4,5.73,1.87,1.9,26.8
2015-07-23 01:35:00,0.0,1.89027,0.00042,384.426,0.118,1.0646,0.0021,139.998,45.000,34266.33669,1.91078,389.518,32.610,45.068,45.000,0.00,0.10,-272.73,-272.80,-6,995,-4,22.7,30.0,4.3,22.6,30.6,4.4,5.73,1.86,1.9,26.7
2015-07-23 01:36:00,0.0,1.89065,0.00042,384.464,0.083,1.0643,0.0021,140.000,45.000,34265.85499,1.91108,389.552,32.624,45.068,45.000,0.00,0.10,-272.74,-272.80,-6,995,-4,22.7,30.0,4.2,22.6,30.6,4.4,5.73,1.86,1.9,26.8
2015-07-23 01:37:00,0.0,1.89028,0.00041,384.627,0.069,1.0640,0.0022,139.998,45.000,34267.73629,1.91078,389.720,32.625,45.068,45.000,0.00,0.10,-272.73,-272.80,-6,994,-4,22.7,29.9,4.2,22.6,30.6,4.4,5.73,1.88,1.9,26.8
2015-07-23 01:38:00,0.0,1.89011,0.00042,384.428,0.085,1.0659,0.0019,139.996,45.000,34266.83147,1.91069,389.534,32.627,45.068,45.000,0.00,0.10,-272.73,-272.79,-6,994,-4,22.8,30.0,4.3,22.6,30.7,4.4,5.73,1.91,1.9,26.8
2015-07-23 01:39:00,0.0,1.88985,0.00035,384.454,0.089,1.0673,0.0022,140.001,45.000,34268.83558,1.91038,389.559,32.650,45.068,45.000,0.00,0.10,-272.73,-272.80,-6,994,-4,22.8,30.0,4.3,22.6,30.7,4.5,5.73,1.93,1.9,26.8
2015-07-23 01:40:00,0.0,1.89007,0.00048,384.684,0.108,1.0588,0.0036,140.002,45.000,34270.01131,1.91043,389.750,32.644,45.068,45.000,0.00,0.10,-272.74,-272.79,-6,994,-4,22.8,29.7,4.1,22.6,30.5,4.3,5.73,1.93,1.9,26.8
2015-07-23 01:41:00,0.0,1.89084,0.00053,384.617,0.080,1.0562,0.0022,140.002,45.000,34268.72387,1.91115,389.676,32.678,45.068,45.000,0.00,0.10,-272.73,-272.79,-6,995,-4,22.8,29.7,4.1,22.6,30.4,4.3,5.73,1.91,1.9,26.9
2015-07-23 01:42:00,0.0,1.89163,0.00042,384.528,0.081,1.0561,0.0032,139.998,45.000,34266.30112,1.91194,389.584,32.690,45.068,45.000,0.00,0.10,-272.73,-272.79,-6,994,-4,22.8,29.7,4.1,22.6,30.4,4.3,5.73,1.88,1.9,26.8
2015-07-23 01:43:00,0.0,1.89158,0.00045,384.549,0.114,1.0547,0.0047,140.003,45.000,34269.04281,1.91188,389.599,32.725,45.068,45.000,0.00,0.10,-272.74,-272.80,-6,994,-4,22.8,29.6,4.1,22.6,30.3,4.3,5.73,1.86,1.9,26.8
2015-07-23 01:44:00,0.0,1.89206,0.00064,384.407,0.113,1.0546,0.0026,140.000,45.000,34268.38305,1.91236,389.450,32.744,45.068,45.000,0.00,0.10,-272.73,-272.79,-6,994,-4,22.8,29.7,4.1,22.6,30.3,4.3,5.73,1.85,1.9,26.8
2015-07-23 01:45:00,0.0,1.89218,0.00033,384.466,0.091,1.0522,0.0036,140.001,45.000,34270.31003,1.91242,389.497,32.750,45.068,45.000,0.00,0.10,-272.73,-272.80,-5,994,-4,22.8,29.5,4.1,22.6,30.3,4.3,5.73,1.87,1.9,26.9
2015-07-23 01:46:00,0.0,1.89188,0.00041,384.741,0.094,1.0464,0.0040,139.999,45.000,34268.61614,1.91209,389.745,32.750,45.068,45.000,0.00,0.10,-272.74,-272.80,-6,994,-4,22.8,29.3,4.0,22.6,30.1,4.2,5.73,1.89,1.9,26.8
2015-07-23 01:47:00,0.0,1.89182,0.00045,384.687,0.099,1.0430,0.0020,140.000,45.000,34270.40591,1.91188,389.676,32.750,45.068,45.000,0.00,0.10,-272.73,-272.80,-6,994,-4,22.8,29.2,3.9,22.6,30.0,4.1,5.73,1.92,1.9,26.8
2015-07-23 01:48:00,0.0,1.89176,0.00030,384.756,0.059,1.0391,0.0021,140.002,45.000,34269.04368,1.91175,389.731,32.749,45.068,45.000,0.00,0.10,-272.73,-272.79,-6,994,-4,22.8,29.1,3.8,22.6,29.8,4.1,5.73,1.93,1.9,26.9